SCP
0 0 0 0 0 0 0 0 0 0 0 0 0 0 0 0 0 0 0 0 0 0 0 0 0 0 0 0 0 0 0 0 0 0 0 0 0 0
0 0 0 0 0 0 0 0 0 0 0 0 0 0 0 0 0 0 0 0 0 0 0 0 0 0 0 0 0 0 0 0 0 0 0 0 0 0
0 0 0 0 0 0 0 0 0 0 0 0 0 0 0 0 0 0 0 0 0 0 0 0 0 0 0 0 0 0 0 0 0 0 0 0 0 0
0 0 0 0 0 0 0 0 0 0 0 0 0 0 0 0 0 0 0 0 0 0 0 0 0 0 0 0 0 0 0 0 0 0 0 0 0 0
0 0 0 0 0 0 0 0 0 0 0 0 0 0 0 0 0 0 0 0 0 0 0 0 0 0 0 0 0 0 0 0 0 0 0 0 0 0
0 0 0 0 0 0 0 0 0 0 0 0 0 0 0 0 0 0 0 0 0 0 0 0 0 0 0 0 0 0 0 0 0 0 0 0 0 0
0 0 0 0 0 0 0 0 0 0 0 0 0 0 0 0 0 0 0 0 0 0 0 0 0 0 0 0 0 0 0 0 0 0 0 0 0 0
0 0 0 0 0 0 0 0 0 0 0 0 0 0 0 0 0 0 0 0 0 0 0 0 0 0 0 0 0 0 0 0 0 0 0 0 0 0
0 0 0 0 0 0 0 0 0 0 0 0 0 0 0 0 0 0 0 0 0 0 0 0 0 0 0 0 0 0 0 0 0 0 0 0 0 0
0 0 0 0 0 0 0 0 0 0 0 0 0 0 0 0 0 0 0 0 0 0 0 0 0 0 0 0 0 0 0 0 0 0 0 0 0 0
0 0 0 0 0 0 0 0 0 0 0 0 0 0 0 0 0 0 0 0 0 0 0 0 0 0 0 0 0 0 0 0 0 0 0 0 0 0
0 0 0 0 0 0 0 0 0 0 0 0 0 0 0 0 0 0 0 0 0 0 0 0 0 0 0 0 0 0 0 0 0 0 0 0 0 0
0 0 0 0 0 0 0 0 0 0 0 0 0 0 0 0 0 0 0 0 0 0 0 0 0 0 0 0 0 0 0 0 0 0 0 0 0 0
0 0 0 0 0 0 0 0 0 0 0 0 0 0 0 0 0 0 0 0 0 0 0 0 0 0 0 0 0 0 0 0 0 0 0 0 0 0
0 0 0 0 0 0 0 0 0 0 0 0 0 0 0 0 0 0 0 0 0 0 0 0 0 0 0 0 0 0 0 0 0 0 0 0 0 0
0 0 0 0 0 0 0 0 0 0 0 0 0 0 0 0 0 0 0 0 0 0 0 0 0 0 0 0 0 0 0 0 0 0 0 0 0 0
0 0 0 0 0 0 0 0 0 0 0 0 0 0 0 0 0 0 0 0 0 0 0 0 0 0 0 0 0 0 0 0 0 0 0 0 0 0
0 0 0 0 0 0 0 0 0 0 0 0 0 0 0 0 0 0 0 0 0 0 0 0 0 0 0 0 0 0 0 0 0 0 0 0 0 0
0 0 0 0 0 0 0 0 0 0 0 0 0 0 0 0 0 0 0 0 0 0 0 0 0 0 0 0 0 0 0 0 0 0 0 0 0 0
0 0 0 0 0 0 0 0 0 0 0 0 0 0 0 0 0 0 0 0 0 0 0 0 0 0 0 0 0 0 0 0 0 0 0 0 0 0
0 0 0 0 0 0 0 0 0 0 0 0 0 0 0 0 0 0 0 0 0 0 0 0 0 0 0 0 0 0 0 0 0 0 0 0 0 0
0 0 0 0 0 0 0 0 0 0 0 0 0 0 0 0 0 0 0 0 0 0 0 0 0 0 0 0 0 0 0 0 0 0 0 0 0 0
0 0 0 0 0 0 0 0 0 0 0 0 0 0 0 0 0 0 0 0 0 0 0 0 0 0 0 0 0 0 0 0 0 0 0 0 0 0
Wind_Speed
11 11 9 7 7 6 5 5 6 6 7 6 4 5 5 4 7 6 6 9 11 11 10 10 10 10 10 10 11 11 12 12 12 13 15 15 16 16
9 10 10 7 6 6 5 5 5 6 6 5 4 4 4 4 7 6 6 9 10 11 11 10 10 10 10 10 10 11 11 12 12 13 14 15 15 15
10 11 11 9 6 6 5 5 5 5 7 4 2 3 4 5 4 4 4 5 5 11 11 11 10 10 10 10 10 11 11 11 12 13 14 15 15 15
12 12 12 9 9 7 7 7 6 6 6 6 3 2 4 5 5 4 4 4 4 8 11 11 10 10 10 10 10 10 10 10 11 12 13 14 15 15
12 12 12 11 11 8 8 8 6 6 5 5 5 3 2 2 3 3 3 2 3 5 8 9 10 10 10 10 10 10 10 10 11 12 13 13 14 15
11 11 11 12 12 10 9 9 7 7 6 5 4 3 2 2 2 3 3 3 3 3 5 6 9 10 11 11 10 10 9 10 11 11 12 13 13 14
9 9 10 11 12 10 8 8 8 7 5 5 5 3 3 3 4 3 4 3 3 3 3 4 4 4 5 9 10 10 10 11 11 12 12 13 13 14
9 8 8 11 12 13 13 12 12 10 8 7 5 6 7 5 4 4 3 2 3 2 2 4 3 4 4 4 8 10 10 11 12 12 13 13 14 15
8 7 6 7 10 8 10 11 11 12 12 9 8 7 6 6 6 5 5 5 4 3 2 4 3 4 4 5 9 10 11 11 11 12 13 13 14 15
7 7 7 6 7 7 6 7 7 7 8 7 7 6 5 5 6 6 5 3 1 1 2 3 3 3 4 3 8 10 10 10 11 12 13 13 14 15
4 5 6 7 9 9 7 7 5 4 4 6 5 6 7 7 5 3 3 2 2 2 2 2 1 2 2 3 5 7 8 10 11 12 13 13 14 13
3 4 7 7 9 10 8 8 7 5 5 4 4 4 4 5 6 5 5 4 2 2 2 2 1 1 2 2 2 3 4 9 12 12 13 14 14 7
4 3 4 8 9 10 8 6 7 6 5 5 4 3 2 2 2 2 3 4 4 3 3 2 1 1 2 3 3 3 3 4 5 7 10 13 14 10
4 3 4 8 9 9 7 6 8 7 4 4 4 3 3 3 2 2 3 2 2 3 3 3 2 3 2 3 4 3 3 4 4 5 4 9 11 13
3 5 6 7 8 7 7 8 8 5 5 4 4 3 3 3 3 3 2 2 1 1 2 3 3 3 3 3 4 4 4 4 4 3 4 5 5 5
3 5 6 6 5 5 6 6 4 4 4 4 4 3 3 3 3 3 2 2 1 0 1 2 3 3 3 4 4 5 4 4 4 5 5 6 5 5
3 3 3 3 3 3 3 3 3 4 3 3 4 4 3 3 3 2 2 2 1 1 1 1 1 2 4 4 4 5 5 5 5 5 5 6 6 5
4 3 4 4 4 4 4 4 3 3 3 4 4 4 3 3 2 2 2 2 2 2 2 1 1 1 2 3 6 5 4 4 4 5 4 6 7 5
3 4 4 4 4 4 4 4 3 3 3 3 3 3 3 3 2 2 2 2 1 2 2 1 1 1 2 4 5 5 4 4 4 5 5 5 7 7
2 3 3 4 4 4 4 4 4 4 4 3 3 3 3 3 2 2 2 2 2 2 1 1 2 3 3 4 4 5 7 5 4 5 5 5 6 9
2 2 3 3 3 4 4 4 5 4 4 4 3 3 3 3 2 2 2 2 2 2 2 3 3 4 2 1 3 4 4 6 7 6 5 5 5 4
2 3 3 3 4 4 4 5 5 4 5 4 4 3 3 3 3 3 2 2 2 2 2 2 2 2 1 2 4 5 6 6 7 10 8 6 4 4
2 2 3 4 4 4 4 5 5 4 4 4 4 3 3 3 2 2 2 2 2 1 1 2 1 1 2 3 3 4 6 6 5 5 5 8 10 11
Wind_Direction
212 212 212 209 207 208 204 194 198 225 236 220 206 202 194 184 187 191 198 213 222 230 237 243 250 256 264 274 280 285 290 292 294 295 296 298 300 302
209 210 215 211 206 203 205 207 205 212 234 220 206 190 186 188 193 190 198 211 222 231 236 242 247 252 261 268 274 280 285 289 292 293 295 297 298 301
210 210 214 208 206 203 199 203 210 207 232 242 214 191 184 188 189 194 197 203 218 231 237 242 246 253 261 265 270 277 283 287 290 293 294 296 298 300
214 210 212 207 207 204 203 208 211 210 217 237 235 207 204 196 189 196 203 207 214 233 237 243 250 255 259 264 270 276 281 285 288 290 292 295 297 298
215 214 212 206 210 207 204 209 212 211 210 221 233 214 205 187 187 208 212 216 228 236 237 246 254 258 261 266 269 274 278 282 286 290 293 295 297 298
217 216 212 209 211 207 206 208 206 208 209 212 223 216 199 177 175 206 224 219 232 234 238 246 251 257 263 266 266 268 273 278 282 287 291 294 296 297
219 218 215 210 210 207 206 203 199 206 206 211 217 209 202 186 202 196 218 222 231 219 226 239 244 243 252 262 263 264 270 276 280 284 288 292 295 297
216 219 215 207 207 206 206 202 200 203 206 208 213 215 217 207 195 195 196 194 240 216 208 245 230 241 245 240 256 263 269 275 279 283 287 291 293 294
213 213 216 205 200 204 205 202 204 208 206 204 210 216 210 202 190 197 200 204 222 204 187 246 238 246 248 260 268 267 271 275 280 285 289 290 292 295
212 209 210 200 196 191 190 196 203 206 205 202 206 208 202 193 194 199 199 198 228 210 171 233 244 249 265 262 266 266 273 279 286 290 290 293 295 296
209 208 203 197 190 180 184 190 194 198 190 182 183 184 185 186 179 157 159 166 228 226 182 199 241 288 282 262 264 269 281 288 292 293 295 298 298 299
205 203 199 193 185 179 186 186 193 191 165 155 157 162 168 176 181 181 176 181 186 218 184 163 196 3 306 280 269 277 282 288 294 298 299 300 300 298
201 202 203 188 186 186 188 190 191 173 164 158 159 160 150 155 160 159 164 171 177 205 187 154 180 188 231 286 288 269 269 284 290 290 292 297 299 301
202 199 192 184 184 183 185 180 163 154 154 157 162 169 174 171 159 153 148 149 167 189 185 172 190 200 222 264 276 282 283 277 278 280 280 294 297 299
198 186 179 177 175 179 174 163 155 154 158 166 175 182 174 156 141 133 126 120 106 154 187 189 194 206 212 238 264 276 294 288 275 279 289 289 284 287
169 158 155 157 160 163 159 158 159 165 166 170 165 154 138 143 151 148 146 140 126 306 241 214 210 207 233 246 253 268 268 269 281 290 291 287 279 266
138 126 126 135 144 143 139 142 149 150 148 143 142 144 149 152 153 146 143 145 172 220 261 262 235 236 237 239 253 257 264 271 273 285 294 293 284 270
139 153 158 155 158 155 148 145 140 142 144 144 145 148 153 156 152 147 150 162 193 218 234 249 300 338 326 275 233 245 257 266 280 284 286 289 290 284
143 161 165 162 157 154 152 151 150 144 141 145 148 150 149 149 152 163 169 177 209 226 235 223 208 217 277 291 279 232 244 278 288 287 279 278 283 287
148 161 165 160 156 155 154 149 145 144 145 146 145 148 149 151 159 174 184 193 209 223 242 235 215 218 237 259 274 273 261 266 276 285 288 285 279 286
162 157 155 154 151 152 151 150 151 153 151 150 151 152 155 156 166 181 193 217 225 220 242 253 248 265 263 262 282 285 276 273 284 283 286 292 296 293
151 150 148 148 150 151 150 150 149 151 152 154 155 156 158 165 171 180 190 203 228 232 249 267 267 250 219 244 276 287 295 299 297 296 286 279 284 286
141 146 148 150 151 151 151 151 151 156 158 157 155 156 158 165 175 183 190 205 217 231 261 283 289 254 245 246 269 283 292 302 307 309 298 303 302 290